Regional Weather Roundup
Issued by NWS

Home | Current Version | Previous Version | Text Only | Print | Product List | Glossary Off
Versions: 1 2 3 4 5 6 7 8 9 10 11 12 13 14 15 16 17 18 19 20 21 22 23 24 25 26 27 28 29 30 31 32 33 34 35 36 37 38 39 40 41 42 43 44 45 46 47 48 49 50

007
ASUS45 KSLC 192110
RWRUT

UTAH REGIONAL WEATHER ROUNDUP
NATIONAL WEATHER SERVICE SALT LAKE CITY UT
300 PM MDT WED JUL 19 2017

UTZ001>011-023>025-192200-

NORTHERN UTAH

CITY           SKY/WX    TMP DP  RH WIND       PRES   REMARKS
BRIGHAM CITY   MOSUNNY   92  50  23 S14G20    30.06S
DUGWAY         PTSUNNY   93  42  17 SW3       30.05F
HILL AFB       NOT AVBL
LOGAN          MOSUNNY   92  54  27 SW9       30.06F HX  90
OGDEN          CLOUDY    90  54  29 SE10      30.06F
SALT LAKE CITY CLOUDY    95  53  24 SW6       30.04F HX  92
TOOELE VALLEY  CLOUDY    93  48  21 N6        30.05F HX  90
WENDOVER       SUNNY     95  42  16 E12       30.03F HX  91
HEBER CITY     MOSUNNY   90  52  27 W3        30.12F
WEST JORDAN    CLOUDY    90  64  42 SE5       30.08F HX  91

$$

UTZ011>015-024>027-192200-

CENTRAL/NORTHEAST UTAH

CITY           SKY/WX    TMP DP  RH WIND       PRES   REMARKS
PROVO AIRPORT  MOSUNNY   91  56  30 E5        30.08F
MOAB/CANYONLAN MOSUNNY   99  48  17 VRB3      30.04F HX  95
DELTA          MOSUNNY   91  45  19 S6        30.09F
PRICE          CLOUDY    86  49  27 SW9       30.19F
ROOSEVELT      CLOUDY    95  46  18 SW7       30.11F HX  91
VERNAL         SUNNY     95  49  20 VRB5      30.10F HX  92

$$

UTZ013>016-019>022-027-192200-

SOUTHERN UTAH

CITY           SKY/WX    TMP DP  RH WIND       PRES   REMARKS
BRYCE CANYON   MOSUNNY   78  53  41 S13       30.37F
CEDAR CITY     CLOUDY    82  56  40 SW9       30.22F
MILFORD        PTSUNNY   86  53  32 S18G25    30.15F
ST GEORGE      PTCLDY    89  60  37 W15       30.05F
HANKSVILLE     PTSUNNY   95  46  18 SW16G23   30.07F HX  91
BLANDING       SUNNY     90  47  23 SW12G17   30.29F

$$

REGIONAL REPORTS     COLORADO/ARIZONA

CITY           SKY/WX    TMP DP  RH WIND       PRES   REMARKS
CRAIG, CO      CLOUDY    91  41  17 VRB5      30.19F
GRAND JUNCTION SUNNY     93  52  24 W12       30.09F HX  90
RIFLE, CO      CLOUDY    86  53  32 S15       30.16S THUNDER
MONTROSE, CO   LGT RAIN  81  56  42 S14G24    30.21R
CORTEZ, CO     SUNNY     93  47  20 SW14G22   30.22F
COLORADO CITY    N/A     86  57  37 N6        30.23F
PAGE, AZ       MOSUNNY   92  56  29 N8        30.11F HX  90
GRAND CANYON   PTSUNNY   79  54  41 SW9       30.32F
KINGMAN, AZ    LGT RAIN  75  68  78 E5        30.16S
FLAGSTAFF, AZ  MOSUNNY   77  52  41 W9G20     30.36F

$$

REGIONAL REPORTS    NEVADA/IDAHO/WYOMING

CITY           SKY/WX    TMP DP  RH WIND       PRES   REMARKS
LAS VEGAS, NV  CLOUDY    80  67  64 S10G17    30.04F
ELY, NY        MOSUNNY   90  44  20 SW12G18   30.18F
ELKO, NV       SUNNY     91  20   7 SW8       30.11F
POCATELLO, ID  SUNNY     91  37  15 W8        30.09F
BURLEY, ID     SUNNY     87  38  17 VRB5      30.05F
FORT BRIDGER,    N/A     88  45  22 W14G25    30.31F
EVANSTON, WY   CLOUDY    77  54  44 W14       30.29F
ROCK SPRINGS,  CLOUDY    91  40  16 NW15G21   30.23F
KEMMERER, WY     N/A     81  45  28 W14       30.30F

$$




USA.gov is the U.S. government's official web portal to all federal, state and local government web resources and services.